星链-33709 (STARLINK-33709)

导读

STARLINK-33709是美国SpaceX公司星链(Starlink)星座的成员卫星,于2025年3月31日发射升空,归属美国所有。星链项目旨在构建全球卫星互联网星座,该卫星将和其他星链卫星协同,为全球不同地区用户提供低延迟、高速率的宽带互联网接入服务。

Basic Information
目录编号:
63419
目录名称:
STARLINK-33709
国际标识:
2025-065W
轨道中心:
EARTH
卫星名称:
星链-33709
卫星全名:
星链-33709 (STARLINK-33709)
卫星状态:
在轨 (已飞行440 天)
发射日期:
2025-03-31 UTC
国别 :
美国 (US)
星等 :
--
Orbit Information
数据来源 国际轨道数据 AOE轨道数据
星历时间 2026-06-13T09:39:59+0800
1天前
查看轨道信息
2026-06-07T23:00:00+0800
6天前
查看轨道信息
半长轴 6861.161km 6860.967km
偏心率 0.0006336 0.0002342
轨道倾角 43.006° 43.000°
近地点辐角 265.530° 247.098°
升交点赤经 288.665° 319.419°
平近点角 94.483° 17.330°
近地点 478.676km 481.223km
远地点 487.372km 484.437km
周期 94.266分钟 94.262分钟
每日圈数 15.275884 15.276533
Detailed Information
固有亮度:
5
最大亮度:
2.5
卫星平台:
Starlink V1.0
覆盖范围:
全球
运营商:
太空探索技术公司
运营商所在国:
美国
制造商(研发单位):
太空探索技术公司
制造商所在国:
美国
使用方式:
暂无
Satellite Introduction
Starlink 计划是 SpaceX 推出的全球卫星互联网项目,通过发射低轨道卫星,为全球尤其是偏远地区提供高速、低延迟的互联网服务。自 2019 年起,Starlink 已部署数千颗卫星,旨在缩小全球数字鸿沟,推动互联网普及。该项目还为军事、航空等行业提供通信支持,带来广泛经济效益。
2D Orbit Map
3D Orbit Map
Orbit Altitude Analysis Chart
Orbit Inclination Analysis Chart
Orbit Comprehensive Analysis Chart
View Comprehensive Chart